Content
SEND FEEDBACK

Daily
Averages
Monthly
Summary
United States of America

ST. LOUIS, MISSOURI


Home > North America > United States > Missouri
Elevation: 535 feet     Latitude: 38 45N     Longitude: 090 22W

WEATHER
 
SELECT A DAY
Number of Records: 199,721;   Date Range: 1/1/95 - 10/23/14
 
SHARE

PRINT THIS DATA

[ ← Previous Day ]
WEATHER ALMANAC - JANUARY 15, 2013
[ Next Day → ]
[ °C ]   °F
Weather ElementAverageHighLow
Temperature22.9 °F30 °F (2:54 pm)12 °F (6:54 am)
Dewpoint14.7 °F19 °F (5:54 pm)8.1 °F (6:54 am)
Humidity71.6 %85 % (11:54 pm)56 % (1:54 pm)
Barometer30.34 in30.45 in (1:54 am)30.20 in (10:54 pm)
Wind Speed3.2 mph9.2 mph (9:54 am)
Weather ElementAverage
Visibility10 mi
Wind DirectionENE (70.4 °)

Weather ElementTotal
Precipitation---
Heating Degree Days44 (Base 65)
Averaged from 23 records on January 15, 2013
WEATHER CONDITIONS BREAKOUT
WIND DIRECTION BREAKOUT
WEATHER BY HOUR - JANUARY 15, 2013
[ °C ]   °F
Local TimeTemperatureDewpointHumidityBarometerVisibilityWind DirectionWind SpeedGust SpeedPrecipitationEventsConditions
1:54 AM15.1 °F10.9 °F84 %30.45 in10.0 miCalmClear
2:54 AM14.0 °F9.0 °F80 %30.44 in10.0 miCalmClear
3:54 AM14.0 °F10.0 °F84 %30.43 in10.0 miCalmClear
4:54 AM12.9 °F9.0 °F84 %30.40 in10.0 miCalmClear
5:54 AM12.9 °F9.0 °F84 %30.41 in10.0 miCalmClear
6:54 AM12.0 °F8.1 °F84 %30.44 in10.0 miCalmPartly Cloudy
7:54 AM15.1 °F9.0 °F77 %30.45 in10.0 miCalmMostly Cloudy
8:54 AM21.0 °F16.0 °F81 %30.43 in10.0 miNE (40°)5.8 mphMostly Cloudy
9:54 AM23.0 °F16.0 °F74 %30.39 in10.0 miENE (60°)9.2 mphMostly Cloudy
10:54 AM25.0 °F15.1 °F66 %30.40 in10.0 miNNE (20°)4.6 mphOvercast
11:54 AM26.1 °F14.0 °F60 %30.38 in10.0 miCalmPartly Cloudy
12:54 PM27.0 °F15.1 °F61 %30.33 in10.0 miNE (40°)4.6 mphOvercast
1:54 PM28.9 °F15.1 °F56 %30.32 in10.0 miNE (50°)4.6 mphOvercast
2:54 PM30.0 °F16.0 °F56 %30.30 in10.0 miNorth (360°)5.8 mphOvercast
3:54 PM28.9 °F17.1 °F61 %30.29 in10.0 miNorth (360°)5.8 mphOvercast
4:54 PM28.9 °F17.1 °F61 %30.27 in10.0 miNorth (10°)8.1 mphOvercast
5:54 PM28.9 °F19.0 °F67 %30.26 in10.0 miNNE (30°)8.1 mphOvercast
6:54 PM28.0 °F19.0 °F69 %30.26 in10.0 miNNE (30°)4.6 mphMostly Cloudy
7:54 PM28.0 °F18.0 °F66 %30.25 in10.0 miNNE (20°)3.5 mphOvercast
8:54 PM28.0 °F19.0 °F69 %30.25 in10.0 miCalmOvercast
9:54 PM28.0 °F19.0 °F69 %30.22 in10.0 miNorth (350°)3.5 mphOvercast
10:54 PM28.0 °F19.0 °F69 %30.20 in10.0 miCalmOvercast
11:54 PM23.0 °F19.0 °F85 %30.20 in10.0 miWSW (250°)4.6 mphPartly Cloudy
Hourly data recorded from KSUS, located miles away from St. Louis, Missouri







STORIES FROM OUR PARTNERS